period_start,C,m1,H,J0,J1,J2,J3,J4,J5,JA,JB,JC,JD,JJ,JK,JN,#
2013-10-29 00:00:04,0.00,1.20,0.00,23.51,25.31,28.00,5.75,29.83,999.53,2053.30,3006.98,2998.67,3260.95,349.53,317.55,10.82,0000 0000 0000 0000 000000
2013-10-29 00:01:04,0.04,1.20,0.00,23.50,25.32,27.94,5.90,30.04,999.53,2053.31,3006.58,2998.29,3260.64,350.30,318.26,10.82,0000 0000 0000 0000 000000
2013-10-29 00:02:05,0.21,1.20,0.00,23.49,25.32,27.98,5.63,29.79,999.53,2053.19,3006.21,2998.11,3260.26,349.41,317.45,10.83,0000 0000 0000 0000 000000
2013-10-29 00:03:05,0.01,1.20,0.00,23.49,25.32,27.96,5.88,29.83,999.53,2053.17,3006.07,2998.04,3260.10,349.78,318.16,10.84,0000 0000 0000 0000 000000
2013-10-29 00:04:05,0.05,1.20,0.00,23.50,25.32,27.97,5.90,29.71,999.53,2053.41,3006.02,2998.01,3260.03,349.83,317.70,10.84,0000 0000 0000 0000 000000
2013-10-29 00:05:06,0.23,1.20,0.00,23.47,25.32,27.94,5.97,30.04,999.53,2053.41,3005.65,2997.97,3259.99,350.79,318.74,10.85,0000 0000 0000 0000 000000
2013-10-29 00:06:06,0.06,1.20,0.00,23.46,25.32,27.98,5.89,29.92,999.51,2053.32,3005.25,2997.70,3259.84,349.83,317.87,10.85,0000 0000 0000 0000 000000
2013-10-29 00:07:06,0.06,1.20,0.00,23.48,25.32,27.99,5.82,29.96,999.49,2053.21,3005.09,2997.29,3259.39,349.88,317.89,10.86,0000 0000 0000 0000 000000
2013-10-29 00:08:06,0.09,1.20,0.00,23.48,25.32,27.98,5.78,29.88,999.48,2053.14,3004.96,2997.10,3259.14,349.51,317.54,10.86,0000 0000 0000 0000 000000
2013-10-29 00:09:06,0.05,1.20,0.00,23.48,25.32,28.00,5.92,29.96,999.41,2053.16,3004.53,2997.03,3259.05,349.52,317.40,10.87,0000 0000 0000 0000 000000
2013-10-29 00:10:07,0.11,1.20,0.00,23.47,25.32,28.01,5.75,29.92,999.46,2053.16,3004.20,2997.01,3259.01,349.69,317.88,10.88,0000 0000 0000 0000 000000
2013-10-29 00:11:07,0.05,1.20,0.00,23.48,25.32,28.00,5.74,30.04,999.47,2053.16,3004.07,2996.92,3258.94,349.92,318.22,10.88,0000 0000 0000 0000 000000
2013-10-29 00:12:07,0.05,1.20,0.00,23.48,25.32,27.99,5.99,30.08,999.40,2053.17,3004.01,2996.57,3258.62,350.49,318.42,10.89,0000 0000 0000 0000 000000
2013-10-29 00:13:07,0.18,1.20,0.00,23.48,25.32,27.99,5.83,29.88,999.24,2053.22,3003.69,2996.23,3258.24,349.70,317.63,10.89,0000 0000 0000 0000 000000
2013-10-29 00:14:08,0.20,1.20,0.00,23.50,25.32,28.01,5.63,29.83,999.35,2053.22,3003.28,2996.10,3258.09,349.75,317.47,10.90,0000 0000 0000 0000 000000
2013-10-29 00:15:08,0.09,1.21,0.00,23.50,25.32,27.99,5.59,29.67,999.23,2053.19,3003.10,2996.03,3258.03,349.31,317.23,10.91,0000 0000 0000 0000 000000
2013-10-29 00:16:08,0.03,1.21,0.00,23.50,25.32,27.98,5.93,29.88,999.16,2053.14,3002.99,2996.00,3257.93,351.19,319.11,10.91,0000 0000 0000 0000 000000
2013-10-29 00:17:08,0.01,1.21,0.00,23.48,25.32,27.99,5.82,29.75,999.24,2053.13,3002.57,2995.75,3257.51,350.72,317.88,10.92,0000 0000 0000 0000 000000
2013-10-29 00:18:08,0.20,1.21,0.00,23.49,25.32,28.03,6.02,30.00,999.25,2053.20,3002.23,2995.38,3257.20,350.55,318.40,10.92,0000 0000 0000 0000 000000
2013-10-29 00:19:09,0.21,1.21,0.00,23.49,25.32,27.97,5.67,29.83,999.20,2053.15,3002.07,2995.15,3257.07,348.84,316.83,10.93,0000 0000 0000 0000 000000
2013-10-29 00:20:09,0.05,1.21,0.00,23.47,25.32,27.99,5.64,29.71,999.12,2053.14,3001.98,2995.05,3257.03,348.69,316.69,10.93,0000 0000 0000 0000 000000
2013-10-29 00:21:09,0.05,1.21,0.00,23.48,25.32,27.99,5.76,29.83,999.09,2053.12,3001.61,2995.01,3256.97,350.38,318.20,10.94,0000 0000 0000 0000 000000
2013-10-29 00:22:10,0.04,1.21,0.00,23.47,25.32,27.98,6.02,29.96,999.05,2053.09,3001.24,2994.96,3256.62,350.57,318.37,10.95,0000 0000 0000 0000 000000
2013-10-29 00:23:10,0.08,1.21,0.00,23.48,25.32,27.97,5.88,29.75,999.08,2053.10,3001.08,2994.75,3256.32,350.11,317.96,10.95,0000 0000 0000 0000 000000
2013-10-29 00:24:10,0.14,1.21,0.00,23.49,25.32,28.00,5.81,29.96,999.08,2053.08,3000.90,2994.36,3256.11,350.08,317.66,10.96,0000 0000 0000 0000 000000
2013-10-29 00:25:11,0.13,1.21,0.00,23.53,25.33,28.02,5.51,29.79,999.07,2053.05,3000.42,2994.13,3256.04,348.13,316.11,10.96,0000 0000 0000 0000 000000
2013-10-29 00:26:11,0.13,1.21,0.00,23.54,25.33,28.00,5.96,29.88,999.06,2053.10,3000.19,2994.04,3256.01,350.59,318.34,10.97,0000 0000 0000 0000 000000
2013-10-29 00:27:11,0.10,1.21,0.00,23.51,25.34,28.03,5.83,30.00,999.06,2053.16,3000.07,2994.00,3255.97,349.89,317.64,10.98,0000 0000 0000 0000 000000
2013-10-29 00:28:12,0.09,1.21,0.00,23.49,25.34,28.01,5.68,29.96,999.05,2053.20,2999.98,2993.88,3255.58,349.62,317.50,10.98,0000 0000 0000 0000 000000
2013-10-29 00:29:12,0.12,1.21,0.00,23.48,25.34,28.02,5.85,29.96,999.06,2053.11,2999.67,2993.49,3255.23,350.45,318.27,10.99,0000 0000 0000 0000 000000
2013-10-29 00:30:12,0.12,1.21,0.00,23.49,25.34,28.01,5.82,29.79,999.06,2053.11,2999.26,2993.20,3255.08,351.12,318.86,10.99,0000 0000 0000 0000 000000
2013-10-29 00:31:13,0.14,1.22,0.00,23.49,25.34,28.03,6.04,29.88,999.04,2053.07,2999.09,2993.07,3255.03,350.61,318.15,11.00,0000 0000 0000 0000 000000
2013-10-29 00:32:13,0.03,1.22,0.00,23.50,25.35,28.03,5.89,29.88,999.05,2053.04,2998.99,2993.02,3254.96,349.85,317.77,11.01,0000 0000 0000 0000 000000
2013-10-29 00:33:13,0.01,1.22,0.00,23.52,25.35,28.03,5.63,29.75,999.04,2053.04,2998.68,2992.99,3254.62,350.22,318.44,11.01,0000 0000 0000 0000 000000
2013-10-29 00:34:14,0.10,1.22,0.00,23.54,25.35,28.04,5.79,29.67,999.04,2053.04,2998.26,2992.89,3254.23,350.03,317.82,11.02,0000 0000 0000 0000 000000
2013-10-29 00:35:14,0.14,1.22,0.00,23.54,25.35,28.00,5.88,29.71,999.04,2053.07,2998.09,2992.55,3254.08,350.40,318.14,11.02,0000 0000 0000 0000 000000
2013-10-29 00:36:14,0.13,1.22,0.00,23.51,25.35,28.03,5.81,29.88,999.04,2053.09,2997.97,2992.21,3254.03,350.77,318.52,11.03,0000 0000 0000 0000 000000
2013-10-29 00:37:14,0.15,1.22,0.00,23.51,25.35,28.02,5.88,29.88,999.04,2053.07,2997.54,2992.08,3253.96,350.00,317.82,11.03,0000 0000 0000 0000 000000
2013-10-29 00:38:15,0.08,1.22,0.00,23.52,25.35,28.00,5.94,29.88,999.04,2053.06,2997.20,2992.03,3253.61,350.49,318.25,11.04,0000 0000 0000 0000 000000
2013-10-29 00:39:15,0.09,1.22,0.00,23.52,25.35,28.03,5.86,29.88,999.04,2053.06,2997.07,2991.99,3253.25,350.17,318.27,11.05,0000 0000 0000 0000 000000
2013-10-29 00:40:15,0.08,1.22,0.00,23.52,25.35,28.03,5.82,29.79,999.02,2053.08,2996.91,2991.85,3253.09,349.34,317.01,11.05,0000 0000 0000 0000 000000
2013-10-29 00:41:16,0.10,1.22,0.00,23.51,25.35,28.02,6.01,30.04,999.02,2053.08,2996.44,2991.43,3253.03,350.84,318.58,11.06,0000 0000 0000 0000 000000
2013-10-29 00:42:16,0.18,1.22,0.00,23.52,25.35,28.00,5.84,29.96,999.01,2053.09,2996.16,2991.16,3252.98,349.82,317.78,11.06,0000 0000 0000 0000 000000
2013-10-29 00:43:16,0.11,1.22,0.00,23.54,25.35,28.03,5.82,30.00,998.94,2053.07,2996.05,2991.05,3252.60,349.92,317.69,11.07,0000 0000 0000 0000 000000
2013-10-29 00:44:17,0.08,1.22,0.00,23.52,25.35,28.01,5.90,29.92,998.92,2053.03,2995.83,2991.01,3252.24,349.60,317.61,11.08,0000 0000 0000 0000 000000
2013-10-29 00:45:17,0.07,1.22,0.00,23.52,25.35,28.01,5.84,29.88,999.01,2053.02,2995.38,2990.88,3252.08,349.48,317.19,11.08,0000 0000 0000 0000 000000
2013-10-29 00:46:17,0.12,1.22,0.00,23.53,25.35,28.00,5.94,29.88,998.92,2053.02,2995.14,2990.47,3252.02,350.25,317.78,11.09,0000 0000 0000 0000 000000
2013-10-29 00:47:18,0.14,1.23,0.00,23.52,25.35,27.97,5.95,29.96,998.76,2053.03,2995.05,2990.19,3251.99,350.06,317.90,11.09,0000 0000 0000 0000 000000
2013-10-29 00:48:18,0.09,1.23,0.00,23.52,25.35,27.99,5.83,29.92,998.87,2053.05,2994.85,2990.07,3251.82,350.42,318.26,11.10,0000 0000 0000 0000 000000
2013-10-29 00:49:18,0.10,1.23,0.00,23.52,25.35,28.04,5.73,29.96,998.81,2053.04,2994.41,2990.02,3251.39,349.47,317.25,11.11,0000 0000 0000 0000 000000
2013-10-29 00:50:19,0.12,1.23,0.00,23.52,25.35,28.04,5.68,29.83,998.74,2053.02,2994.15,2989.98,3251.14,349.02,316.83,11.11,0000 0000 0000 0000 000000
2013-10-29 00:51:19,0.06,1.23,0.00,23.51,25.35,28.02,5.67,29.88,998.74,2053.02,2994.05,2989.77,3251.05,348.95,316.78,11.12,0000 0000 0000 0000 000000
2013-10-29 00:52:19,0.09,1.23,0.00,23.50,25.35,28.02,5.80,29.88,998.67,2053.01,2993.81,2989.37,3251.00,350.65,318.30,11.12,0000 0000 0000 0000 000000
2013-10-29 00:53:20,0.13,1.23,0.00,23.51,25.35,28.03,5.92,30.13,998.65,2053.00,2993.36,2989.15,3250.95,350.16,317.84,11.13,0000 0000 0000 0000 000000
2013-10-29 00:54:20,0.12,1.23,0.00,23.53,25.35,28.06,5.77,29.92,998.61,2053.00,2993.13,2989.05,3250.53,349.43,317.14,11.13,0000 0000 0000 0000 000000
2013-10-29 00:55:20,0.10,1.23,0.00,23.54,25.36,28.04,5.87,30.13,998.65,2053.03,2993.05,2989.01,3250.22,350.07,317.72,11.14,0000 0000 0000 0000 000000
2013-10-29 00:56:20,0.07,1.23,0.00,23.54,25.36,28.06,5.77,29.92,998.63,2053.03,2992.90,2988.97,3250.09,349.42,317.13,11.15,0000 0000 0000 0000 000000
2013-10-29 00:57:21,0.06,1.23,0.00,23.54,25.36,28.05,6.01,29.88,998.57,2053.02,2992.47,2988.86,3250.03,350.76,318.32,11.15,0000 0000 0000 0000 000000
2013-10-29 00:58:21,0.10,1.23,0.00,23.53,25.37,28.04,5.89,29.92,998.56,2053.02,2992.18,2988.43,3249.97,350.00,317.65,11.16,0000 0000 0000 0000 000000
2013-10-29 00:59:21,0.15,1.23,0.00,23.53,25.37,28.04,5.72,30.00,998.55,2053.02,2992.06,2988.17,3249.84,349.80,317.47,11.16,0000 0000 0000 0000 000000
2013-10-29 01:00:21,0.11,1.23,0.00,23.52,25.37,28.02,5.98,30.13,998.55,2053.00,2991.95,2988.06,3249.42,349.78,317.45,11.17,0000 0000 0000 0000 000000
2013-10-29 01:01:21,0.10,1.23,0.00,23.54,25.37,27.99,5.90,29.92,998.55,2053.02,2991.57,2988.02,3249.16,350.01,317.95,11.18,0000 0000 0000 0000 000000
2013-10-29 01:02:22,0.11,1.23,0.00,23.54,25.37,28.03,5.78,30.08,998.55,2053.02,2991.23,2987.96,3249.06,349.35,317.04,11.18,0000 0000 0000 0000 000000
2013-10-29 01:03:22,0.07,1.23,0.00,23.54,25.37,28.06,5.76,29.92,998.55,2053.02,2991.08,2987.70,3249.02,350.32,317.92,11.19,0000 0000 0000 0000 000000
2013-10-29 01:04:22,0.09,1.24,0.00,23.54,25.37,28.03,5.76,30.08,998.55,2053.01,2990.95,2987.35,3248.96,349.43,317.12,11.19,0000 0000 0000 0000 000000
2013-10-29 01:05:23,0.11,1.24,0.00,23.54,25.37,28.00,5.83,29.96,998.55,2053.03,2990.55,2987.15,3248.72,350.04,317.91,11.20,0000 0000 0000 0000 000000
2013-10-29 01:06:23,0.14,1.24,0.00,23.53,25.37,28.03,5.84,30.08,998.55,2053.03,2990.21,2987.05,3248.33,350.36,318.24,11.20,0000 0000 0000 0000 000000
2013-10-29 01:07:23,0.14,1.24,0.00,23.52,25.37,28.03,5.77,29.75,998.55,2053.01,2990.06,2986.99,3248.12,349.39,317.10,11.21,0000 0000 0000 0000 000000
2013-10-29 01:08:24,0.05,1.24,0.00,23.53,25.37,28.03,5.96,29.92,998.55,2053.01,2989.90,2986.89,3248.04,350.16,317.79,11.22,0000 0000 0000 0000 000000
2013-10-29 01:09:24,0.09,1.24,0.00,23.52,25.37,28.03,5.74,29.96,998.54,2053.00,2989.44,2986.55,3247.99,350.67,318.25,11.22,0000 0000 0000 0000 000000
2013-10-29 01:10:24,0.14,1.24,0.00,23.52,25.37,28.05,5.73,29.88,998.53,2053.00,2989.16,2986.24,3247.77,349.69,317.36,11.23,0000 0000 0000 0000 000000
2013-10-29 01:11:25,0.15,1.24,0.00,23.52,25.37,28.06,5.81,29.83,998.49,2053.01,2989.05,2986.09,3247.36,350.44,318.04,11.23,0000 0000 0000 0000 000000
2013-10-29 01:12:25,0.10,1.24,0.00,23.52,25.37,28.05,5.78,29.83,998.50,2053.00,2988.88,2986.03,3247.13,350.13,317.75,11.24,0000 0000 0000 0000 000000
2013-10-29 01:13:25,0.08,1.24,0.00,23.53,25.37,28.05,5.74,29.79,998.52,2053.00,2988.42,2985.99,3247.05,349.47,317.22,11.25,0000 0000 0000 0000 000000
2013-10-29 01:14:26,0.08,1.24,0.00,23.55,25.37,28.06,5.83,29.92,998.52,2053.00,2988.15,2985.94,3247.01,350.14,317.74,11.25,0000 0000 0000 0000 000000
2013-10-29 01:15:26,0.07,1.24,0.00,23.56,25.37,28.06,5.97,29.96,998.52,2053.01,2988.05,2985.66,3246.93,350.82,318.51,11.26,0000 0000 0000 0000 000000
2013-10-29 01:16:26,0.12,1.24,0.00,23.54,25.37,28.05,5.88,29.92,998.43,2053.00,2987.95,2985.26,3246.54,349.66,317.51,11.26,0000 0000 0000 0000 000000
2013-10-29 01:17:26,0.16,1.24,0.00,23.53,25.37,28.03,5.93,30.00,998.43,2053.01,2987.57,2985.09,3246.26,350.52,318.18,11.27,0000 0000 0000 0000 000000
2013-10-29 01:18:27,0.12,1.24,0.00,23.53,25.37,28.05,5.84,29.83,998.40,2053.00,2987.24,2985.03,3246.11,350.15,317.99,11.27,0000 0000 0000 0000 000000
2013-10-29 01:19:27,0.07,1.25,0.00,23.50,25.37,28.04,5.88,30.00,998.40,2053.02,2987.08,2985.01,3246.04,350.58,318.15,11.28,0000 0000 0000 0000 000000
2013-10-29 01:20:27,0.04,1.25,0.00,23.52,25.37,28.07,5.76,29.96,998.39,2053.01,2987.00,2984.96,3246.01,349.88,317.90,11.29,0000 0000 0000 0000 000000
2013-10-29 01:21:28,0.06,1.25,0.00,23.54,25.37,28.05,5.85,29.88,998.37,2053.01,2986.57,2984.65,3245.87,350.46,317.58,11.29,0000 0000 0000 0000 000000
2013-10-29 01:22:28,0.16,1.25,0.00,23.53,25.37,28.07,5.82,29.92,998.33,2053.04,2986.20,2984.30,3245.50,350.60,318.21,11.30,0000 0000 0000 0000 000000
2013-10-29 01:23:28,0.19,1.25,0.00,23.52,25.37,28.05,5.66,29.79,998.25,2053.06,2986.07,2984.15,3245.23,350.16,317.26,11.30,0000 0000 0000 0000 000000
2013-10-29 01:24:28,0.09,1.25,0.00,23.53,25.37,28.07,5.86,30.00,998.17,2053.03,2986.01,2984.05,3245.08,350.17,317.60,11.31,0000 0000 0000 0000 000000
2013-10-29 01:25:29,0.03,1.25,0.00,23.54,25.38,28.08,5.98,29.96,998.12,2053.03,2985.83,2984.00,3245.03,350.24,317.72,11.32,0000 0000 0000 0000 000000
2013-10-29 01:26:29,0.05,1.25,0.00,23.54,25.38,28.04,5.90,30.08,998.15,2053.01,2985.38,2983.97,3245.00,350.25,317.73,11.32,0000 0000 0000 0000 000000
2013-10-29 01:27:29,0.06,1.25,0.00,23.54,25.38,28.03,5.86,30.00,998.09,2053.03,2985.13,2983.89,3244.93,350.71,318.12,11.33,0000 0000 0000 0000 000000
2013-10-29 01:28:29,0.11,1.25,0.00,23.53,25.39,28.04,5.97,29.83,998.08,2053.02,2985.04,2983.47,3244.48,350.45,317.90,11.33,0000 0000 0000 0000 000000
2013-10-29 01:29:30,0.16,1.25,0.00,23.53,25.39,28.04,5.77,29.88,998.09,2053.01,2984.82,2983.18,3244.19,349.57,317.10,11.34,0000 0000 0000 0000 000000
2013-10-29 01:30:30,0.13,1.25,0.00,23.50,25.39,28.02,5.83,29.79,998.08,2053.01,2984.39,2983.08,3244.07,350.19,317.64,11.35,0000 0000 0000 0000 000000
2013-10-29 01:31:30,0.09,1.25,0.00,23.51,25.39,28.03,5.86,30.04,998.08,2053.01,2984.14,2983.01,3244.01,349.73,316.88,11.35,0000 0000 0000 0000 000000
2013-10-29 01:32:31,0.05,1.25,0.00,23.52,25.39,28.04,5.74,29.88,998.07,2053.01,2984.05,2982.92,3243.85,349.50,317.05,11.36,0000 0000 0000 0000 000000
2013-10-29 01:33:31,0.07,1.25,0.00,23.50,25.39,28.06,5.88,30.00,998.06,2053.00,2983.92,2982.61,3243.52,349.89,317.41,11.36,0000 0000 0000 0000 000000
2013-10-29 01:34:31,0.14,1.25,0.00,23.50,25.39,28.06,5.72,29.88,998.06,2053.00,2983.52,2982.26,3243.20,350.09,318.00,11.37,0000 0000 0000 0000 000000
2013-10-29 01:35:31,0.17,1.25,0.00,23.53,25.39,28.02,5.99,30.04,998.07,2053.00,2983.20,2982.09,3243.07,350.07,317.61,11.37,0000 0000 0000 0000 000000
2013-10-29 01:36:32,0.11,1.26,0.00,23.54,25.39,28.06,5.83,30.00,998.07,2053.00,2983.07,2982.03,3243.02,349.86,317.34,11.38,0000 0000 0000 0000 000000
2013-10-29 01:37:32,0.04,1.26,0.00,23.55,25.40,28.07,5.95,30.08,998.06,2053.00,2983.00,2982.00,3242.99,350.38,317.81,11.39,0000 0000 0000 0000 000000
2013-10-29 01:38:32,0.04,1.26,0.00,23.53,25.40,28.04,5.96,29.96,998.06,2053.03,2982.61,2981.97,3242.85,349.81,317.31,11.39,0000 0000 0000 0000 000000
2013-10-29 01:39:32,0.11,1.26,0.00,23.55,25.40,28.05,5.81,29.96,998.06,2053.02,2982.24,2981.74,3242.43,350.46,317.45,11.40,0000 0000 0000 0000 000000
2013-10-29 01:40:33,0.17,1.26,0.00,23.54,25.40,28.09,5.87,29.83,998.06,2053.02,2982.08,2981.35,3242.17,349.96,317.27,11.40,0000 0000 0000 0000 000000
2013-10-29 01:41:33,0.13,1.26,0.00,23.53,25.40,28.06,5.90,29.92,998.06,2053.01,2981.97,2981.13,3242.06,350.60,317.85,11.41,0000 0000 0000 0000 000000
2013-10-29 01:42:33,0.09,1.26,0.00,23.54,25.40,28.08,5.70,29.88,998.06,2053.01,2981.57,2981.05,3241.98,350.93,318.16,11.42,0000 0000 0000 0000 000000
2013-10-29 01:43:33,0.09,1.26,0.00,23.54,25.40,28.04,5.77,30.00,998.06,2053.01,2981.21,2981.01,3241.74,350.29,318.07,11.42,0000 0000 0000 0000 000000
2013-10-29 01:44:34,0.10,1.26,0.00,23.55,25.40,28.07,5.71,29.88,998.05,2053.01,2981.07,2980.94,3241.31,349.47,316.98,11.43,0000 0000 0000 0000 000000
2013-10-29 01:45:34,0.09,1.26,0.00,23.53,25.40,28.05,5.98,29.96,998.05,2053.01,2981.01,2980.69,3241.13,350.38,317.83,11.43,0000 0000 0000 0000 000000
2013-10-29 01:46:34,0.11,1.26,0.00,23.53,25.40,28.08,6.00,30.29,998.04,2053.01,2980.75,2980.32,3241.05,351.66,318.98,11.44,0000 0000 0000 0000 000000
2013-10-29 01:47:34,0.14,1.26,0.00,23.56,25.40,28.07,5.92,29.92,998.03,2053.01,2980.30,2980.11,3241.01,349.80,317.27,11.44,0000 0000 0000 0000 000000
2013-10-29 01:48:35,0.11,1.26,0.00,23.54,25.40,28.04,5.69,29.75,998.00,2053.02,2980.11,2980.04,3240.97,349.58,317.07,11.45,0000 0000 0000 0000 000000
2013-10-29 01:49:35,0.05,1.26,0.00,23.52,25.40,28.07,5.82,29.96,997.96,2053.01,2980.04,2980.01,3240.83,350.84,318.22,11.46,0000 0000 0000 0000 000000
2013-10-29 01:50:36,0.02,1.26,0.00,23.53,25.40,28.04,5.71,29.79,997.84,2053.00,2979.95,2979.98,3240.48,349.12,316.62,11.46,0000 0000 0000 0000 000000
2013-10-29 01:51:36,0.09,1.26,0.00,23.53,25.40,28.06,5.81,29.71,997.80,2053.01,2979.50,2979.84,3240.19,350.15,317.54,11.47,0000 0000 0000 0000 000000
2013-10-29 01:52:36,0.15,1.27,0.00,23.54,25.40,28.08,5.92,30.04,997.71,2053.03,2979.20,2979.45,3240.07,350.15,317.50,11.47,0000 0000 0000 0000 000000
2013-10-29 01:53:36,0.14,1.27,0.00,23.54,25.40,28.06,5.82,29.75,997.66,2053.01,2979.07,2979.18,3240.01,349.79,317.16,11.48,0000 0000 0000 0000 000000
2013-10-29 01:54:37,0.07,1.27,0.00,23.52,25.40,28.07,5.64,30.04,997.65,2053.01,2978.94,2979.07,3239.95,348.80,316.07,11.49,0000 0000 0000 0000 000000
2013-10-29 01:55:37,0.07,1.27,0.00,23.52,25.40,28.10,5.67,29.71,997.69,2053.00,2978.50,2979.00,3239.64,348.94,316.28,11.49,0000 0000 0000 0000 000000
2013-10-29 01:56:37,0.12,1.27,0.00,23.53,25.40,28.05,5.71,29.75,997.64,2053.00,2978.19,2978.93,3239.27,350.36,317.68,11.50,0000 0000 0000 0000 000000
2013-10-29 01:57:37,0.11,1.27,0.00,23.54,25.40,28.03,6.08,30.04,997.65,2053.01,2978.07,2978.71,3239.10,350.54,317.84,11.50,0000 0000 0000 0000 000000
2013-10-29 01:58:38,0.10,1.27,0.00,23.52,25.40,28.09,5.60,29.83,997.60,2053.02,2978.00,2978.38,3239.03,348.72,316.19,11.51,0000 0000 0000 0000 000000
2013-10-29 01:59:38,0.10,1.27,0.00,23.52,25.40,28.10,5.84,29.75,997.58,2053.01,2977.68,2978.14,3238.98,350.67,317.90,11.52,0000 0000 0000 0000 000000
2013-10-29 02:00:38,0.11,1.27,0.00,23.53,25.40,28.08,5.67,29.75,997.58,2053.01,2977.26,2978.06,3238.82,349.52,316.90,11.52,0000 0000 0000 0000 000000
2013-10-29 02:01:38,0.09,1.27,0.00,23.50,25.40,28.08,5.74,29.75,997.58,2053.01,2977.09,2978.01,3238.44,350.74,318.03,11.53,0000 0000 0000 0000 000000
2013-10-29 02:02:39,0.09,1.27,0.00,23.50,25.40,28.05,5.68,29.83,997.59,2053.01,2977.02,2977.98,3238.15,349.22,316.66,11.53,0000 0000 0000 0000 000000
2013-10-29 02:03:39,0.05,1.27,0.00,23.52,25.40,28.06,6.06,29.92,997.58,2053.00,2976.71,2977.78,3238.05,351.02,318.27,11.54,0000 0000 0000 0000 000000
2013-10-29 02:04:39,0.14,1.27,0.00,23.52,25.40,28.06,5.83,29.92,997.59,2053.02,2976.27,2977.45,3238.02,349.76,317.13,11.54,0000 0000 0000 0000 000000
2013-10-29 02:05:39,0.14,1.27,0.00,23.53,25.40,28.08,5.88,29.75,997.59,2053.01,2976.09,2977.18,3237.98,350.77,318.04,11.55,0000 0000 0000 0000 000000
2013-10-29 02:06:40,0.08,1.27,0.00,23.51,25.40,28.07,5.88,30.08,997.57,2053.00,2976.03,2977.07,3237.79,350.30,317.63,11.56,0000 0000 0000 0000 000000
2013-10-29 02:07:40,0.06,1.27,0.00,23.49,25.40,28.09,5.95,29.67,997.57,2053.01,2975.93,2977.02,3237.39,350.68,317.98,11.56,0000 0000 0000 0000 000000
2013-10-29 02:08:40,0.07,1.27,0.00,23.50,25.40,28.07,5.57,29.83,997.57,2053.00,2975.59,2976.99,3237.17,348.76,316.24,11.57,0000 0000 0000 0000 000000
2013-10-29 02:09:40,0.10,1.28,0.00,23.50,25.40,28.08,5.73,29.92,997.57,2053.00,2975.22,2976.91,3237.06,350.21,317.55,11.57,0000 0000 0000 0000 000000
2013-10-29 02:10:41,0.09,1.28,0.00,23.51,25.40,28.10,5.87,30.00,997.57,2053.00,2975.05,2976.47,3237.02,350.08,317.43,11.58,0000 0000 0000 0000 000000
2013-10-29 02:11:41,0.12,1.28,0.00,23.50,25.40,28.11,6.03,30.21,997.57,2053.00,2974.93,2976.18,3236.97,351.21,318.45,11.59,0000 0000 0000 0000 000000
2013-10-29 02:12:41,0.11,1.28,0.00,23.48,25.40,28.07,5.67,30.04,997.57,2053.02,2974.52,2976.06,3236.88,350.21,317.57,11.59,0000 0000 0000 0000 000000
2013-10-29 02:13:41,0.10,1.28,0.00,23.50,25.40,28.07,5.78,29.83,997.57,2053.01,2974.21,2976.02,3236.50,349.76,317.59,11.60,0000 0000 0000 0000 000000
2013-10-29 02:14:42,0.09,1.28,0.00,23.51,25.40,28.06,5.85,29.92,997.57,2053.00,2974.07,2975.99,3236.18,350.19,317.53,11.60,0000 0000 0000 0000 000000
2013-10-29 02:15:42,0.06,1.28,0.00,23.53,25.40,28.07,5.77,29.83,997.57,2053.00,2973.96,2975.97,3236.07,349.18,316.59,11.61,0000 0000 0000 0000 000000
2013-10-29 02:16:42,0.04,1.28,0.00,23.54,25.40,28.04,5.89,30.00,997.56,2053.00,2973.57,2975.81,3236.02,349.91,317.24,11.61,0000 0000 0000 0000 000000
2013-10-29 02:17:42,0.11,1.28,0.00,23.53,25.40,28.07,5.65,29.67,997.54,2053.00,2973.21,2975.42,3235.94,349.84,317.16,11.62,0000 0000 0000 0000 000000
2013-10-29 02:18:43,0.15,1.28,0.00,23.53,25.40,28.11,5.63,30.00,997.53,2053.01,2973.08,2975.17,3235.62,349.60,317.18,11.63,0000 0000 0000 0000 000000
2013-10-29 02:19:43,0.14,1.28,0.00,23.55,25.40,28.12,5.60,29.88,997.47,2053.01,2973.01,2975.06,3235.30,349.40,316.66,11.63,0000 0000 0000 0000 000000
2013-10-29 02:20:43,0.08,1.28,0.00,23.53,25.40,28.09,5.99,30.21,997.43,2053.00,2972.74,2975.01,3235.12,349.11,316.47,11.64,0000 0000 0000 0000 000000
2013-10-29 02:21:44,0.07,1.28,0.00,23.53,25.40,28.05,5.76,29.83,997.35,2053.00,2972.33,2974.99,3235.05,349.51,316.82,11.64,0000 0000 0000 0000 000000
2013-10-29 02:22:44,0.07,1.28,0.00,23.54,25.40,28.06,5.83,29.96,997.36,2053.00,2972.13,2974.87,3235.01,349.77,317.04,11.65,0000 0000 0000 0000 000000
2013-10-29 02:23:44,0.07,1.28,0.00,23.53,25.40,28.09,5.92,29.88,997.27,2053.00,2972.04,2974.49,3234.97,350.51,317.70,11.66,0000 0000 0000 0000 000000
2013-10-29 02:24:44,0.11,1.28,0.00,23.53,25.40,28.09,5.91,29.88,997.27,2053.02,2971.92,2974.19,3234.78,350.30,317.50,11.66,0000 0000 0000 0000 000000
2013-10-29 02:25:45,0.16,1.29,0.00,23.54,25.40,28.09,5.80,29.92,997.20,2053.03,2971.45,2974.07,3234.34,349.76,316.98,11.67,0000 0000 0000 0000 000000
2013-10-29 02:26:45,0.14,1.29,0.00,23.53,25.40,28.11,5.69,29.79,997.21,2053.01,2971.16,2974.03,3234.12,349.71,316.95,11.67,0000 0000 0000 0000 000000
2013-10-29 02:27:45,0.05,1.29,0.00,23.53,25.40,28.07,5.77,29.83,997.19,2053.00,2971.05,2974.00,3234.04,349.15,316.44,11.68,0000 0000 0000 0000 000000
2013-10-29 02:28:45,0.02,1.29,0.00,23.53,25.40,28.08,5.96,30.04,997.13,2053.01,2971.01,2973.95,3233.99,350.46,317.78,11.69,0000 0000 0000 0000 000000
2013-10-29 02:29:45,0.02,1.29,0.00,23.52,25.40,28.08,5.84,29.79,997.15,2053.00,2970.80,2973.65,3233.96,350.15,316.82,11.69,0000 0000 0000 0000 000000
2013-10-29 02:30:46,0.14,1.29,0.00,23.51,25.40,28.07,5.99,30.08,997.13,2053.01,2970.38,2973.31,3233.61,350.48,317.64,11.70,0000 0000 0000 0000 000000
2013-10-29 02:31:46,0.21,1.29,0.00,23.50,25.40,28.06,5.81,29.88,997.13,2053.02,2970.14,2973.11,3233.26,350.13,317.32,11.70,0000 0000 0000 0000 000000
2013-10-29 02:32:46,0.11,1.29,0.00,23.51,25.40,28.07,5.83,29.75,997.11,2053.01,2970.02,2973.03,3233.10,349.70,316.93,11.71,0000 0000 0000 0000 000000
2013-10-29 02:33:47,0.04,1.29,0.00,23.53,25.40,28.07,5.94,29.92,997.13,2053.01,2969.69,2972.98,3233.04,350.47,318.07,11.71,0000 0000 0000 0000 000000
2013-10-29 02:34:47,0.08,1.29,0.00,23.52,25.40,28.09,5.87,29.88,997.13,2053.01,2969.26,2972.70,3232.97,350.24,317.83,11.72,0000 0000 0000 0000 000000
2013-10-29 02:35:47,0.15,1.29,0.00,23.55,25.40,28.06,5.85,29.88,997.17,2053.00,2969.09,2972.35,3232.80,349.35,316.59,11.73,0000 0000 0000 0000 000000
2013-10-29 02:36:48,0.14,1.29,0.00,23.55,25.40,28.08,5.61,29.75,997.19,2053.00,2969.02,2972.15,3232.38,349.36,316.61,11.73,0000 0000 0000 0000 000000